{"data":{"norad_id":63964,"intl_designator":"2025-099N","name":"STARLINK-34135","alt_names":[],"object_type":"PAYLOAD","status":"ACTIVE","operator":null,"country":"US","launch_date":"2025-05-13","launch_site_code":"AFETR","launch_vehicle":null,"mission":null,"orbit_class":"UNKNOWN","rcs_meters":null,"size_class":null,"mass_kg":null,"dimensions":null,"purposes":["comms"],"wikipedia_slug":null,"has_3d_model":false,"image_url":null,"decayed_at":null,"tle_current":{"epoch":"2026-05-24T21:45:16.009056Z","epoch_age_seconds":73350,"freshness":"FRESH","line1":"1 63964U 25099N   26144.90643529  .00008119  00000+0  30433-3 0  9992","line2":"2 63964  43.0001 105.7013 0002944 282.4029  77.6493 15.27567727 58997","mean_motion":15.27567727,"eccentricity":0.0002944,"inclination_deg":43.0001,"raan_deg":105.7013,"arg_perigee_deg":282.4029,"mean_anomaly_deg":77.6493,"bstar":0.00030433,"rev_number":5899,"period_min":94.267506084855,"perigee_km":481.06590205701,"apogee_km":485.10579006877,"semimajor_km":6861.2228460629,"source":"CELESTRAK","updated_at":"2026-05-25T13:38:20.213303Z"}}}